• Join FlightAware (Why Join?)
  • Login
  • US Flag GB Flag 
16:43 EST


 

Airport Tracker/Info


-or-


 

Live Flight TrackerFlight Track Log ✈ EJA122 ✈ 08-Jul-2013 ✈ KTLH - KOPF

Flight Track Log - Related Links

Times and Time Zones

All times are in EDT time to prevent confusion due to time zone crossing. See the EJA122 flight status page for this flight to view local times or setup timezone preferences in your user account.

Time Position Orientation Groundspeed Altitude Reporting Facility
EDT Latitude Longitude Course Direction KTS MPH feet Rate Location/Type
21:00 30.4219 -84.2778 148° Southeast 233 268 5,500  Level Jacksonville Center
21:01 30.3575 -84.2383 152° Southeast 239 275 7,800 2,340 Climbing Jacksonville Center
21:02 30.2911 -84.1964 151° Southeast 257 296 10,300 2,100 Climbing Jacksonville Center
21:03 30.2228 -84.1497 149° Southeast 268 308 12,000 1,560 Climbing Jacksonville Center
21:04 30.1211 -84.0888 148° Southeast  Level FlightAware Approximate
21:04 30.1522 -84.1058 152° Southeast 298 343 13,500  Level Jacksonville Center
21:05 30.0273 -84.0217 148° Southeast  Level FlightAware Approximate
21:05 30.0711 -84.0567 152° Southeast 318 366 14,900  Level Jacksonville Center
21:06 29.9903 -84.0053 151° Southeast 331 381 16,400 1,500 Climbing Jacksonville Center
21:07 29.9072 -83.9517 151° Southeast 337 388 17,900 1,320 Climbing Jacksonville Center
21:08 29.8242 -83.8981 151° Southeast 337 388 19,100 1,200 Climbing Jacksonville Center
21:09 29.7369 -83.8444 152° Southeast 342 394 20,400 1,260 Climbing Jacksonville Center
21:10 29.6517 -83.7889 150° Southeast 347 399 21,700 1,200 Climbing Jacksonville Center
21:11 29.5644 -83.7331 151° Southeast 347 399 22,900 1,140 Climbing Jacksonville Center
21:12 29.4792 -83.6750 149° Southeast 347 399 24,100 1,200 Climbing Jacksonville Center
21:13 29.4022 -83.6031 141° Southeast 352 405 25,300 1,140 Climbing Jacksonville Center
21:14 29.3233 -83.5286 141° Southeast 359 413 26,400 1,020 Climbing Jacksonville Center
21:15 29.2444 -83.4542 141° Southeast 369 425 27,400 900 Climbing Jacksonville Center
21:16 29.1633 -83.3728 139° Southeast 374 430 28,300 900 Climbing Jacksonville Center
21:17 29.0781 -83.2917 140° Southeast 380 437 29,300 900 Climbing Jacksonville Center
21:18 28.9928 -83.2131 141° Southeast 392 451 30,200 840 Climbing Jacksonville Center
21:19 28.9072 -83.1344 141° Southeast 398 458 31,100 900 Climbing Jacksonville Center
21:20 28.8050 -83.0869 158° South 398 458 32,100 900 Climbing Jacksonville Center
21:21 28.7008 -83.0442 160° South 396 456 32,900 780 Climbing Jacksonville Center
21:22 28.5186 -82.9722 161° South 410 472 34,200 660 Climbing Miami Center
21:23 28.4122 -82.9286 160° South 404 465 34,800 360 Climbing Miami Center
21:24 28.3014 -82.8847 161° South 404 465 35,000 60 Climbing Miami Center
21:25 28.1906 -82.8389 160° South 418 481 35,000  Level Miami Center
21:26 28.0717 -82.7925 161° South 439 505 35,000  Level Miami Center
21:27 27.9483 -82.7461 162° South 454 522 35,000  Level Miami Center
21:28 27.8294 -82.6978 160° South 459 528 35,000  Level Miami Center
21:29 27.7225 -82.6594 162° South 451 519 35,000 -180 Level Miami Center
21:30 27.5969 -82.6158 163° South 462 532 34,700 -720 Descending Miami Center
21:31 27.4633 -82.5647 161° South 462 532 33,600 -1,020 Descending Miami Center
21:32 27.3419 -82.5189 161° South 462 532 32,700 -900 Descending Miami Center
21:33 27.2189 -82.4661 159° South 467 537 31,800 -900 Descending Miami Center
21:34 27.1222 -82.3753 140° Southeast 453 521 30,900 -900 Descending Miami Center
21:35 27.0383 -82.2733 133° Southeast 453 521 30,000 -900 Descending Miami Center
21:36 26.9461 -82.1711 135° Southeast 458 527 29,100 -960 Descending Miami Center
21:37 26.8581 -82.0694 134° Southeast 458 527 28,100 -1,020 Descending Miami Center
21:38 26.7778 -81.9775 134° Southeast 464 534 27,100 -960 Descending Miami Center
21:39 26.6875 -81.8761 135° Southeast 464 534 26,200 -900 Descending Miami Center
21:40 26.5992 -81.7747 134° Southeast 458 527 25,300 -900 Descending Miami Center
21:41 26.5106 -81.6736 134° Southeast 458 527 24,500 -780 Descending Miami Center
21:42 26.4161 -81.5608 133° Southeast 448 516 23,800 -780 Descending Miami Center
21:43 26.3275 -81.4622 135° Southeast 448 516 23,000 -1,380 Descending Miami Center
21:44 26.2386 -81.3614 134° Southeast 448 516 21,100 -2,340 Descending Miami Center
21:45 26.1558 -81.2681 135° Southeast 443 510 18,400 -2,520 Descending Miami Center
21:46 26.0853 -81.1869 134° Southeast 418 481 16,100 -2,220 Descending Miami Center
21:47 26.0167 -81.1081 134° Southeast 379 436 14,000 -2,160 Descending Miami Center
21:48 25.9458 -81.0269 134° Southeast 339 390 11,800 -1,980 Descending Miami Center
21:49 25.9081 -80.9542 120° Southeast 286 329 10,100 -1,440 Descending Miami Center
21:50 25.9150 -80.8575 85° East 250 288 8,600 -1,380 Descending Miami Center
21:51 25.9250 -80.7931 80° East 246 283 7,400 -1,740 Descending Miami Center
21:52 25.9439 -80.7153 75° East 258 297 5,600 -1,800 Descending Miami Center
21:53 25.9625 -80.6442 74° East 247 284 3,800 -1,800 Descending Miami Center
21:54 25.9767 -80.5753 77° East 236 272 2,100 -900 Descending Miami Center
21:55 25.9953 -80.5067 73° East 231 266 2,000 -60 Descending Miami Center
21:56 25.9947 -80.4442 91° East 220 253 2,000  Level Miami Center
21:58 25.9606 -80.3831 122° Southeast 140 161 2,000 -300 Level Miami Center
21:59 25.9364 -80.3453 125° Southeast 136 157 1,300 -780 Descending Miami Center
22:00 25.9183 -80.3125 121° Southeast 127 146 500 -840 Descending Miami Center
22:02 25.9074 -80.2782 90° East  Level Estimated